CCA4580 ZGSZ-ZUGY

Flight info

Callsign CCA4580
Flight time 1h 25m
Altitude 38100
Route MIPAG7XD MIPAG W21 NUSLA W22 TEPID W24 OSNOV G586 QP B330 ELKAL ELKAL7X
Aircraft A346/H-SDE2E3FGHIJ3J4J5M1RWXY/LB1D1

Departure

Time 2026-05-05 02:24
Airport Shenzhen Bao'an International Airport (ZGSZ)

Arrival

Time 2026-05-05 03:49
Airport Guiyang Longdongbao International Airport (ZUGY)
Time Latitude Longitude Altitude Speed Heading
2026-05-05 01:55 22.64418 113.79574 31 ft 0 kts 131°
2026-05-05 02:11 22.64418 113.79573 31 ft 1 kts 131°
2026-05-05 02:11 22.64428 113.79561 31 ft 2 kts 131°
2026-05-05 02:11 22.64439 113.79549 31 ft 2 kts 143°
2026-05-05 02:12 22.64452 113.79541 31 ft 2 kts 161°
2026-05-05 02:12 22.64482 113.79537 31 ft 2 kts 189°
2026-05-05 02:12 22.64496 113.79541 31 ft 2 kts 203°
2026-05-05 02:13 22.64510 113.79549 31 ft 2 kts 218°
2026-05-05 02:13 22.64521 113.79560 31 ft 2 kts 232°
2026-05-05 02:13 22.64526 113.79569 31 ft 0 kts 241°
2026-05-05 02:13 22.64527 113.79571 31 ft 0 kts 242°
2026-05-05 02:17 22.64522 113.79560 31 ft 3 kts 242°
2026-05-05 02:17 22.64503 113.79520 31 ft 8 kts 244°
2026-05-05 02:17 22.64472 113.79452 31 ft 11 kts 244°
2026-05-05 02:17 22.64456 113.79375 31 ft 11 kts 287°
2026-05-05 02:18 22.64522 113.79320 31 ft 13 kts 333°
2026-05-05 02:18 22.64612 113.79270 31 ft 15 kts 333°
2026-05-05 02:18 22.64715 113.79213 31 ft 17 kts 333°
2026-05-05 02:18 22.64826 113.79152 31 ft 18 kts 333°
2026-05-05 02:19 22.64947 113.79084 31 ft 20 kts 333°
2026-05-05 02:19 22.65076 113.79013 31 ft 21 kts 333°
2026-05-05 02:19 22.65217 113.78937 31 ft 23 kts 333°
2026-05-05 02:19 22.65364 113.78856 31 ft 24 kts 333°
2026-05-05 02:20 22.65522 113.78770 31 ft 26 kts 333°
2026-05-05 02:20 22.65685 113.78680 31 ft 27 kts 333°
2026-05-05 02:20 22.65859 113.78584 31 ft 28 kts 333°
2026-05-05 02:20 22.66044 113.78483 31 ft 30 kts 333°
2026-05-05 02:21 22.66232 113.78378 31 ft 31 kts 333°
2026-05-05 02:21 22.66342 113.78310 31 ft 12 kts 312°
2026-05-05 02:21 22.66343 113.78226 31 ft 13 kts 248°
2026-05-05 02:21 22.66299 113.78129 31 ft 15 kts 243°
2026-05-05 02:22 22.66247 113.78019 31 ft 17 kts 244°
2026-05-05 02:22 22.66195 113.77899 31 ft 18 kts 242°
2026-05-05 02:22 22.66104 113.77824 31 ft 13 kts 197°
2026-05-05 02:22 22.66017 113.77799 31 ft 9 kts 193°
2026-05-05 02:23 22.65962 113.77778 31 ft 9 kts 218°
2026-05-05 02:23 22.65926 113.77709 31 ft 12 kts 244°
2026-05-05 02:23 22.65876 113.77658 31 ft 10 kts 178°
2026-05-05 02:23 22.65715 113.77737 31 ft 58 kts 153°
2026-05-05 02:24 22.65135 113.78056 31 ft 127 kts 153°
2026-05-05 02:24 22.64170 113.78585 83 ft 175 kts 151°
2026-05-05 02:24 22.63040 113.79203 566 ft 185 kts 152°
2026-05-05 02:24 22.61858 113.79670 1388 ft 184 kts 164°
2026-05-05 02:25 22.60613 113.79884 2146 ft 185 kts 170°
2026-05-05 02:25 22.59352 113.80106 2861 ft 186 kts 167°
2026-05-05 02:25 22.58090 113.80357 3551 ft 188 kts 167°
2026-05-05 02:25 22.56792 113.80629 4239 ft 190 kts 166°
2026-05-05 02:26 22.55465 113.80919 4742 ft 204 kts 166°
2026-05-05 02:26 22.54022 113.81241 5193 ft 221 kts 166°
2026-05-05 02:26 22.52465 113.81586 5622 ft 237 kts 169°
2026-05-05 02:26 22.50747 113.81491 5896 ft 259 kts 198°
2026-05-05 02:27 22.49222 113.80443 6418 ft 269 kts 231°
2026-05-05 02:27 22.48389 113.78700 7266 ft 263 kts 261°
2026-05-05 02:27 22.48188 113.76753 8095 ft 261 kts 268°
2026-05-05 02:27 22.48073 113.74798 8850 ft 263 kts 268°
2026-05-05 02:28 22.48202 113.72831 9593 ft 263 kts 290°
2026-05-05 02:28 22.49075 113.71124 10340 ft 262 kts 314°
2026-05-05 02:28 22.50549 113.69969 10843 ft 273 kts 339°
2026-05-05 02:28 22.52469 113.69427 11224 ft 291 kts 348°
2026-05-05 02:29 22.54527 113.68985 11628 ft 310 kts 348°
2026-05-05 02:29 22.56716 113.68542 12029 ft 329 kts 351°
2026-05-05 02:29 22.59029 113.68359 12406 ft 349 kts 359°
2026-05-05 02:29 22.61535 113.68561 12781 ft 368 kts
2026-05-05 02:30 22.64119 113.69006 13258 ft 383 kts
2026-05-05 02:30 22.66744 113.69502 14025 ft 388 kts
2026-05-05 02:30 22.69401 113.70003 14861 ft 391 kts
2026-05-05 02:30 22.72079 113.70503 15637 ft 395 kts
2026-05-05 02:31 22.74834 113.71011 16398 ft 399 kts
2026-05-05 02:31 22.77569 113.71510 17133 ft 403 kts
2026-05-05 02:31 22.80348 113.72017 17856 ft 407 kts
2026-05-05 02:31 22.83135 113.72524 18555 ft 411 kts
2026-05-05 02:32 22.85958 113.73038 19237 ft 415 kts
2026-05-05 02:32 22.88848 113.73516 19901 ft 419 kts
2026-05-05 02:32 22.91783 113.73429 20546 ft 422 kts 352°
2026-05-05 02:32 22.94601 113.72655 21176 ft 426 kts 340°
2026-05-05 02:33 22.97316 113.71265 21801 ft 430 kts 333°
2026-05-05 02:33 22.99954 113.69735 22389 ft 434 kts 332°
2026-05-05 02:33 23.02638 113.68153 22955 ft 438 kts 332°
2026-05-05 02:33 23.05339 113.66564 23518 ft 442 kts 332°
2026-05-05 02:34 23.08041 113.64983 24066 ft 446 kts 333°
2026-05-05 02:34 23.10802 113.63372 24610 ft 450 kts 333°
2026-05-05 02:34 23.13550 113.61773 25140 ft 454 kts 333°
2026-05-05 02:34 23.16343 113.60149 25661 ft 457 kts 333°
2026-05-05 02:35 23.19156 113.58514 26169 ft 461 kts 333°
2026-05-05 02:35 23.21992 113.56866 26664 ft 464 kts 333°
2026-05-05 02:35 23.24836 113.55212 27145 ft 468 kts 333°
2026-05-05 02:35 23.27706 113.53542 27621 ft 471 kts 333°
2026-05-05 02:36 23.30605 113.51855 28077 ft 475 kts 333°
2026-05-05 02:36 23.33513 113.50160 28544 ft 478 kts 333°
2026-05-05 02:36 23.36439 113.48456 29167 ft 476 kts 333°
2026-05-05 02:36 23.39366 113.46749 29844 ft 474 kts 333°
2026-05-05 02:37 23.42268 113.45056 30487 ft 472 kts 333°
2026-05-05 02:37 23.45160 113.43368 31089 ft 471 kts 333°
2026-05-05 02:37 23.47996 113.41634 31660 ft 470 kts 330°
2026-05-05 02:37 23.50771 113.39734 32222 ft 470 kts 327°
2026-05-05 02:38 23.53430 113.37682 32767 ft 469 kts 324°
2026-05-05 02:38 23.55948 113.35461 33302 ft 468 kts 321°
2026-05-05 02:38 23.58379 113.33078 33821 ft 468 kts 317°
2026-05-05 02:38 23.60676 113.30560 34321 ft 467 kts 314°
2026-05-05 02:39 23.62811 113.27943 34804 ft 467 kts 311°
2026-05-05 02:39 23.64837 113.25159 35284 ft 466 kts 307°
2026-05-05 02:39 23.66689 113.22301 35738 ft 465 kts 304°
2026-05-05 02:39 23.68407 113.19307 36172 ft 465 kts 301°
2026-05-05 02:40 23.69966 113.16223 36561 ft 464 kts 298°
2026-05-05 02:40 23.71385 113.13015 36866 ft 466 kts 296°
2026-05-05 02:40 23.72753 113.09822 37119 ft 468 kts 296°
2026-05-05 02:40 23.74243 113.06677 37349 ft 469 kts 302°
2026-05-05 02:41 23.76072 113.03711 37573 ft 469 kts 309°
2026-05-05 02:41 23.78215 113.01056 37791 ft 470 kts 316°
2026-05-05 02:41 23.80672 112.98723 38011 ft 469 kts 324°
2026-05-05 02:41 23.83399 112.96760 38168 ft 469 kts 332°
2026-05-05 02:42 23.86333 112.95210 38176 ft 469 kts 339°
2026-05-05 02:42 23.92517 112.93053 38182 ft 467 kts 345°
2026-05-05 02:43 23.98739 112.91039 38181 ft 466 kts 344°
2026-05-05 02:43 24.04931 112.88989 38181 ft 466 kts 344°
2026-05-05 02:44 24.11141 112.86919 38182 ft 465 kts 344°
2026-05-05 02:44 24.17311 112.84862 38182 ft 464 kts 344°
2026-05-05 02:45 24.23464 112.82819 38181 ft 463 kts 344°
2026-05-05 02:45 24.29613 112.80774 38169 ft 463 kts 344°
2026-05-05 02:46 24.35748 112.78728 38161 ft 462 kts 344°
2026-05-05 02:46 24.41676 112.76025 38156 ft 464 kts 328°
2026-05-05 02:47 24.46457 112.71316 38156 ft 468 kts 309°
2026-05-05 02:47 24.49530 112.65025 38156 ft 472 kts 289°
2026-05-05 02:48 24.50682 112.57903 38159 ft 475 kts 278°
2026-05-05 02:48 24.51353 112.50708 38157 ft 475 kts 277°
2026-05-05 02:49 24.52024 112.43500 38156 ft 475 kts 278°
2026-05-05 02:49 24.52710 112.36274 38156 ft 475 kts 278°
2026-05-05 02:50 24.53398 112.29064 38156 ft 475 kts 277°
2026-05-05 02:50 24.54085 112.21856 38156 ft 475 kts 277°
2026-05-05 02:51 24.54771 112.14633 38156 ft 475 kts 277°
2026-05-05 02:51 24.55451 112.07430 38156 ft 475 kts 277°
2026-05-05 02:52 24.56132 112.00185 38156 ft 475 kts 277°
2026-05-05 02:52 24.56803 111.93002 38156 ft 475 kts 277°
2026-05-05 02:53 24.57476 111.85764 38156 ft 475 kts 277°
2026-05-05 02:53 24.58144 111.78539 38156 ft 475 kts 277°
2026-05-05 02:54 24.58805 111.71362 38156 ft 475 kts 277°
2026-05-05 02:54 24.59462 111.64181 38156 ft 475 kts 277°
2026-05-05 02:55 24.60117 111.56974 38156 ft 475 kts 277°
2026-05-05 02:55 24.60771 111.49744 38156 ft 475 kts 277°
2026-05-05 02:56 24.61420 111.42535 38156 ft 475 kts 277°
2026-05-05 02:56 24.62063 111.35355 38156 ft 475 kts 277°
2026-05-05 02:57 24.62707 111.28102 38156 ft 475 kts 277°
2026-05-05 02:57 24.63334 111.20878 38156 ft 475 kts 277°
2026-05-05 02:58 24.63951 111.13705 38156 ft 475 kts 277°
2026-05-05 02:58 24.64568 111.06499 38157 ft 475 kts 277°
2026-05-05 02:59 24.65180 110.99302 38157 ft 473 kts 277°
2026-05-05 02:59 24.65790 110.92117 38157 ft 470 kts 277°
2026-05-05 03:00 24.66746 110.85043 38156 ft 466 kts 286°
2026-05-05 03:00 24.68962 110.78403 38156 ft 463 kts 298°
2026-05-05 03:01 24.72368 110.72457 38156 ft 461 kts 310°
2026-05-05 03:01 24.76720 110.67378 38157 ft 460 kts 317°
2026-05-05 03:02 24.81354 110.62525 38156 ft 460 kts 317°
2026-05-05 03:02 24.85963 110.57696 38156 ft 460 kts 317°
2026-05-05 03:03 24.90579 110.52835 38156 ft 460 kts 317°
2026-05-05 03:03 24.95174 110.47984 38156 ft 460 kts 317°
2026-05-05 03:04 24.99764 110.43134 38156 ft 459 kts 317°
2026-05-05 03:04 25.04352 110.38292 38156 ft 456 kts 316°
2026-05-05 03:05 25.08941 110.33451 38157 ft 454 kts 316°
2026-05-05 03:05 25.13471 110.28661 38157 ft 453 kts 315°
2026-05-05 03:06 25.18013 110.23841 38156 ft 453 kts 315°
2026-05-05 03:06 25.22555 110.19044 38156 ft 453 kts 315°
2026-05-05 03:07 25.27115 110.14280 38156 ft 453 kts 316°
2026-05-05 03:07 25.31701 110.09483 38156 ft 453 kts 316°
2026-05-05 03:08 25.36261 110.04701 38156 ft 453 kts 316°
2026-05-05 03:08 25.40822 109.99912 38156 ft 453 kts 316°
2026-05-05 03:09 25.45353 109.95148 38156 ft 453 kts 316°
2026-05-05 03:09 25.49914 109.90346 38156 ft 453 kts 315°
2026-05-05 03:10 25.54475 109.85539 38156 ft 453 kts 315°
2026-05-05 03:10 25.59035 109.80727 38156 ft 453 kts 315°
2026-05-05 03:11 25.63587 109.75917 38156 ft 453 kts 315°
2026-05-05 03:11 25.68122 109.71121 38156 ft 453 kts 315°
2026-05-05 03:12 25.72494 109.66148 38156 ft 453 kts 310°
2026-05-05 03:12 25.76189 109.60537 38156 ft 452 kts 302°
2026-05-05 03:13 25.79094 109.54368 38156 ft 452 kts 294°
2026-05-05 03:13 25.81168 109.47791 38157 ft 453 kts 287°
2026-05-05 03:14 25.82936 109.41059 38156 ft 453 kts 287°
2026-05-05 03:14 25.84682 109.34369 38156 ft 453 kts 287°
2026-05-05 03:15 25.86432 109.27684 38157 ft 453 kts 287°
2026-05-05 03:15 25.88192 109.20965 38156 ft 453 kts 287°
2026-05-05 03:16 25.89942 109.14271 38157 ft 452 kts 287°
2026-05-05 03:16 25.91683 109.07594 38157 ft 451 kts 287°
2026-05-05 03:17 25.93430 109.00938 38157 ft 450 kts 287°
2026-05-05 03:17 25.95212 108.94259 38156 ft 449 kts 287°
2026-05-05 03:18 25.96974 108.87633 38156 ft 449 kts 287°
2026-05-05 03:18 25.98728 108.81014 38156 ft 449 kts 287°
2026-05-05 03:19 26.01367 108.71031 38156 ft 449 kts 287°
2026-05-05 03:19 26.03127 108.64419 38157 ft 449 kts 287°
2026-05-05 03:20 26.04891 108.57783 38163 ft 449 kts 287°
2026-05-05 03:20 26.06660 108.51109 38173 ft 449 kts 287°
2026-05-05 03:21 26.08404 108.44504 38186 ft 449 kts 286°
2026-05-05 03:21 26.09825 108.37752 38198 ft 449 kts 281°
2026-05-05 03:22 26.10731 108.30849 38206 ft 450 kts 278°
2026-05-05 03:22 26.11537 108.23992 38207 ft 450 kts 278°
2026-05-05 03:23 26.12344 108.17101 38207 ft 450 kts 278°
2026-05-05 03:23 26.13149 108.10210 38207 ft 450 kts 278°
2026-05-05 03:24 26.13952 108.03323 38205 ft 450 kts 278°
2026-05-05 03:24 26.14752 107.96428 38208 ft 450 kts 278°
2026-05-05 03:25 26.15549 107.89523 38209 ft 450 kts 278°
2026-05-05 03:25 26.16335 107.82673 38209 ft 450 kts 278°
2026-05-05 03:26 26.17131 107.75769 38209 ft 450 kts 278°
2026-05-05 03:26 26.17918 107.68892 38209 ft 450 kts 278°
2026-05-05 03:27 26.18703 107.62004 38209 ft 450 kts 278°
2026-05-05 03:27 26.19487 107.55117 38209 ft 450 kts 278°
2026-05-05 03:28 26.20265 107.48231 38209 ft 450 kts 278°
2026-05-05 03:28 26.21037 107.41337 38209 ft 450 kts 278°
2026-05-05 03:29 26.21808 107.34417 38210 ft 450 kts 278°
2026-05-05 03:29 26.22576 107.27509 38209 ft 450 kts 278°
2026-05-05 03:30 26.22957 107.24068 38070 ft 445 kts 278°
2026-05-05 03:30 26.23328 107.20706 37276 ft 441 kts 278°
2026-05-05 03:30 26.23702 107.17313 36214 ft 440 kts 278°
2026-05-05 03:30 26.24355 107.14027 35175 ft 436 kts 293°
2026-05-05 03:31 26.25953 107.11266 34214 ft 431 kts 313°
2026-05-05 03:31 26.28244 107.09180 33383 ft 426 kts 327°
2026-05-05 03:31 26.30916 107.07846 32529 ft 423 kts 343°
2026-05-05 03:31 26.33826 107.07407 31406 ft 429 kts 359°
2026-05-05 03:32 26.36763 107.07958 29912 ft 442 kts 17°
2026-05-05 03:32 26.39481 107.09516 28427 ft 454 kts 33°
2026-05-05 03:32 26.41842 107.11877 26909 ft 463 kts 47°
2026-05-05 03:32 26.43575 107.14867 25397 ft 468 kts 64°
2026-05-05 03:33 26.44388 107.18330 23907 ft 471 kts 84°
2026-05-05 03:33 26.44267 107.21931 22762 ft 462 kts 93°
2026-05-05 03:33 26.43987 107.25432 21980 ft 444 kts 94°
2026-05-05 03:33 26.43669 107.28761 21357 ft 425 kts 95°
2026-05-05 03:34 26.43326 107.31953 20739 ft 409 kts 95°
2026-05-05 03:34 26.42938 107.35014 20178 ft 393 kts 101°
2026-05-05 03:34 26.42051 107.37824 19622 ft 381 kts 116°
2026-05-05 03:34 26.40583 107.40242 19142 ft 369 kts 131°
2026-05-05 03:35 26.38720 107.42094 19141 ft 355 kts 144°
2026-05-05 03:35 26.36600 107.43390 19163 ft 340 kts 158°
2026-05-05 03:35 26.34395 107.44094 19162 ft 326 kts 171°
2026-05-05 03:35 26.32182 107.44254 19118 ft 314 kts 184°
2026-05-05 03:36 26.30070 107.43894 19093 ft 307 kts 195°
2026-05-05 03:36 26.28050 107.43074 19052 ft 314 kts 211°
2026-05-05 03:36 26.26352 107.41402 18634 ft 347 kts 238°
2026-05-05 03:36 26.25392 107.38905 18292 ft 356 kts 260°
2026-05-05 03:37 26.25348 107.36179 17646 ft 359 kts 283°
2026-05-05 03:37 26.26324 107.33625 16784 ft 365 kts 308°
2026-05-05 03:37 26.28221 107.31708 16207 ft 374 kts 331°
2026-05-05 03:37 26.30524 107.30423 15791 ft 375 kts 335°
2026-05-05 03:38 26.32867 107.29161 15361 ft 375 kts 335°
2026-05-05 03:38 26.35216 107.27889 14932 ft 374 kts 334°
2026-05-05 03:38 26.37538 107.26622 14509 ft 373 kts 334°
2026-05-05 03:38 26.39863 107.25349 14087 ft 372 kts 334°
2026-05-05 03:39 26.42191 107.24071 13663 ft 371 kts 334°
2026-05-05 03:39 26.44493 107.22806 13244 ft 370 kts 334°
2026-05-05 03:39 26.46778 107.21548 12826 ft 368 kts 334°
2026-05-05 03:39 26.49045 107.20298 12411 ft 366 kts 334°
2026-05-05 03:40 26.51339 107.19033 11989 ft 365 kts 334°
2026-05-05 03:40 26.53596 107.17787 11574 ft 363 kts 334°
2026-05-05 03:40 26.55832 107.16551 11155 ft 361 kts 334°
2026-05-05 03:40 26.58076 107.15311 10776 ft 357 kts 334°
2026-05-05 03:41 26.60273 107.14096 10480 ft 349 kts 334°
2026-05-05 03:41 26.62429 107.12904 10293 ft 338 kts 334°
2026-05-05 03:41 26.64477 107.11771 10228 ft 325 kts 334°
2026-05-05 03:41 26.66470 107.10667 10171 ft 311 kts 334°
2026-05-05 03:42 26.68342 107.09583 10106 ft 297 kts 327°
2026-05-05 03:42 26.69759 107.08006 9916 ft 290 kts 301°
2026-05-05 03:42 26.70571 107.05988 9724 ft 282 kts 288°
2026-05-05 03:42 26.71045 107.03878 9500 ft 276 kts 279°
2026-05-05 03:43 26.71320 107.01784 9277 ft 270 kts 277°
2026-05-05 03:43 26.71554 106.99725 9050 ft 265 kts 277°
2026-05-05 03:43 26.71783 106.97678 8819 ft 260 kts 276°
2026-05-05 03:43 26.72007 106.95717 8597 ft 255 kts 276°
2026-05-05 03:44 26.72237 106.93759 8366 ft 251 kts 277°
2026-05-05 03:44 26.72462 106.91859 8148 ft 243 kts 276°
2026-05-05 03:44 26.72688 106.90022 7893 ft 232 kts 276°
2026-05-05 03:44 26.72892 106.88287 7625 ft 221 kts 270°
2026-05-05 03:45 26.72673 106.86639 7357 ft 208 kts 248°
2026-05-05 03:45 26.71957 106.85294 7097 ft 194 kts 226°
2026-05-05 03:45 26.70980 106.84411 7006 ft 176 kts 210°
2026-05-05 03:45 26.69881 106.83831 6742 ft 173 kts 199°
2026-05-05 03:46 26.68757 106.83466 6361 ft 167 kts 193°
2026-05-05 03:46 26.67649 106.83199 6093 ft 162 kts 190°
2026-05-05 03:46 26.66540 106.82972 5883 ft 162 kts 191°
2026-05-05 03:46 26.65436 106.82755 5675 ft 161 kts 191°
2026-05-05 03:47 26.64343 106.82545 5466 ft 161 kts 192°
2026-05-05 03:47 26.63247 106.82332 5257 ft 160 kts 191°
2026-05-05 03:47 26.62166 106.82124 5046 ft 158 kts 191°
2026-05-05 03:47 26.61074 106.81909 4831 ft 158 kts 190°
2026-05-05 03:48 26.60004 106.81703 4622 ft 157 kts 192°
2026-05-05 03:48 26.58921 106.81491 4413 ft 157 kts 191°
2026-05-05 03:48 26.57861 106.81274 4205 ft 156 kts 191°
2026-05-05 03:48 26.56791 106.81052 4001 ft 156 kts 191°
2026-05-05 03:49 26.55732 106.80858 3781 ft 153 kts 191°
2026-05-05 03:49 26.54796 106.80672 3753 ft 113 kts 191°
2026-05-05 03:49 26.54200 106.80558 3753 ft 60 kts 188°
2026-05-05 03:49 26.53990 106.80444 3753 ft 7 kts 218°
2026-05-05 03:50 26.53959 106.80408 3753 ft 7 kts 240°
2026-05-05 03:50 26.53968 106.80347 3753 ft 10 kts 327°
2026-05-05 03:50 26.54051 106.80347 3753 ft 13 kts 12°
2026-05-05 03:50 26.54144 106.80370 3753 ft 14 kts 11°
2026-05-05 03:51 26.54244 106.80392 3753 ft 15 kts 11°
2026-05-05 03:51 26.54350 106.80411 3753 ft 15 kts
2026-05-05 03:51 26.54463 106.80428 3753 ft 16 kts
2026-05-05 03:51 26.54580 106.80446 3753 ft 17 kts
2026-05-05 03:52 26.54684 106.80466 3753 ft 10 kts 353°
2026-05-05 03:52 26.54729 106.80398 3753 ft 12 kts 291°
2026-05-05 03:52 26.54752 106.80298 3753 ft 13 kts 279°
2026-05-05 03:52 26.54765 106.80195 3753 ft 14 kts 277°
2026-05-05 03:53 26.54781 106.80084 3753 ft 14 kts 280°
2026-05-05 03:53 26.54763 106.79983 3753 ft 7 kts 243°
2026-05-05 03:53 26.54743 106.79939 3753 ft 2 kts 241°
2026-05-05 03:53 26.54741 106.79934 3753 ft 0 kts 240°